TimeCDT,TemperatureF,Dew PointF,Humidity,Sea Level PressureIn,VisibilityMPH,Wind Direction,Wind SpeedMPH,Gust SpeedMPH,PrecipitationIn,Events,Conditions,WindDirDegrees,DateUTC
12:53 AM,48.0,43.0,83,29.77,10.0,WNW,10.4,-,N/A,,Overcast,290,2012-10-15 05:53:00
1:53 AM,48.0,42.1,80,29.78,10.0,WNW,9.2,-,N/A,,Overcast,300,2012-10-15 06:53:00
2:53 AM,46.9,41.0,80,29.79,10.0,WNW,9.2,-,N/A,,Overcast,300,2012-10-15 07:53:00
3:29 AM,46.4,41.0,81,29.79,10.0,WNW,6.9,-,N/A,,Scattered Clouds,290,2012-10-15 08:29:00
3:49 AM,46.4,41.0,81,29.79,10.0,WNW,8.1,-,N/A,,Mostly Cloudy,290,2012-10-15 08:49:00
3:53 AM,46.0,42.1,86,29.80,10.0,WNW,8.1,-,N/A,,Mostly Cloudy,290,2012-10-15 08:53:00
4:43 AM,46.4,39.2,76,29.80,10.0,WNW,8.1,-,N/A,,Mostly Cloudy,300,2012-10-15 09:43:00
4:51 AM,46.4,41.0,81,29.80,10.0,WNW,8.1,-,N/A,,Mostly Cloudy,300,2012-10-15 09:51:00
4:53 AM,46.0,41.0,83,29.81,10.0,WNW,6.9,-,N/A,,Mostly Cloudy,290,2012-10-15 09:53:00
5:53 AM,45.0,39.0,80,29.83,10.0,WNW,8.1,-,N/A,,Overcast,290,2012-10-15 10:53:00
6:28 AM,44.6,39.2,81,29.83,10.0,WNW,6.9,-,N/A,,Overcast,300,2012-10-15 11:28:00
6:53 AM,45.0,39.0,80,29.85,10.0,WNW,9.2,-,N/A,,Overcast,290,2012-10-15 11:53:00
7:53 AM,45.0,39.0,80,29.87,10.0,WNW,10.4,-,N/A,,Overcast,300,2012-10-15 12:53:00
8:53 AM,46.0,39.0,76,29.89,10.0,NW,12.7,-,N/A,,Overcast,310,2012-10-15 13:53:00
9:40 AM,48.2,39.2,71,29.89,10.0,NW,12.7,-,N/A,,Scattered Clouds,310,2012-10-15 14:40:00
9:53 AM,48.0,37.9,68,29.91,10.0,NW,12.7,-,N/A,,Mostly Cloudy,310,2012-10-15 14:53:00
10:53 AM,48.0,37.9,68,29.93,10.0,NW,10.4,-,N/A,,Mostly Cloudy,320,2012-10-15 15:53:00
11:53 AM,50.0,37.0,61,29.94,10.0,NNW,9.2,19.6,N/A,,Mostly Cloudy,330,2012-10-15 16:53:00
12:00 PM,48.2,37.4,66,29.93,10.0,NW,9.2,-,N/A,,Partly Cloudy,320,2012-10-15 17:00:00
12:53 PM,52.0,37.0,57,29.94,10.0,WNW,10.4,-,N/A,,Scattered Clouds,290,2012-10-15 17:53:00
1:53 PM,55.0,37.0,51,29.93,10.0,North,9.2,-,N/A,,Clear,350,2012-10-15 18:53:00
2:53 PM,55.9,37.0,49,29.94,10.0,NNW,4.6,-,N/A,,Clear,340,2012-10-15 19:53:00
3:44 PM,51.8,37.4,58,29.93,10.0,East,8.1,-,N/A,,Clear,100,2012-10-15 20:44:00
3:53 PM,52.0,37.9,59,29.95,10.0,East,9.2,-,N/A,,Clear,90,2012-10-15 20:53:00
4:53 PM,48.9,37.0,64,29.96,10.0,East,10.4,-,N/A,,Clear,90,2012-10-15 21:53:00
5:53 PM,46.0,37.9,73,29.95,10.0,ESE,5.8,-,N/A,,Clear,110,2012-10-15 22:53:00
6:53 PM,45.0,37.0,74,29.96,10.0,SE,3.5,-,N/A,,Clear,130,2012-10-15 23:53:00
7:53 PM,45.0,37.9,76,29.97,10.0,SE,3.5,-,N/A,,Clear,130,2012-10-16 00:53:00
8:53 PM,45.0,37.0,74,29.97,10.0,SE,3.5,-,N/A,,Clear,130,2012-10-16 01:53:00
9:53 PM,42.1,37.0,82,29.98,10.0,SSE,3.5,-,N/A,,Clear,160,2012-10-16 02:53:00
10:53 PM,42.1,37.0,82,29.96,10.0,Calm,Calm,-,N/A,,Clear,0,2012-10-16 03:53:00
11:53 PM,41.0,37.0,86,29.97,10.0,Calm,Calm,-,N/A,,Clear,0,2012-10-16 04:53:00